Weather History for CYEV - February, 2014

Change the Weather History Date:

Tuesday, February 18, 2014

  Actual Average Record
Temperature  
Mean Temperature -36 °F -  
Max Temperature -31 °F -5 °F 19 °F (2008)
Min Temperature -41 °F -25 °F -45 °F (2004)
Degree Days  
Heating Degree Days 100    
Moisture  
Dew Point -45 °F    
Average Humidity 66    
Maximum Humidity 75    
Minimum Humidity 61    
Precipitation  
Precipitation 0.00 in 0.01 in - ()
Sea Level Pressure  
Sea Level Pressure 30.06 in    
Wind  
Wind Speed 2 mph ()    
Max Wind Speed 5 mph    
Max Gust Speed -    
Visibility 7.8 miles    
Events Fog    
Averages and records for this station are not official NWS values.
T = Trace of Precipitation, MM = Missing Value Source: Averaged Metar Reports

Daily Weather History Graph

Daily Weather History Graph

Search for Another Location

Airport or City:

Trip Planner

Search our weather history database for the weather conditions in past years. The results will help you decide how hot, cold, wet, or windy it might be!

Date:

Astronomy

Feb. 18, 2014 Rise Set
Actual Time 10:00 AM MST 6:17 PM MST
Civil Twilight 8:59 AM MST 7:17 PM MST
Nautical Twilight 7:53 AM MST 8:23 PM MST
Astronomical Twilight 6:48 AM MST 9:29 PM MST
Moon No Moon Rise 9:35 AM MST (2/18)
Length of Visible Light 10h 18m
Length of Day
8h 16m
Waning Gibbous, 87% of the Moon is Illuminated
Feb 18
Waning Gibbous
Feb 22
Last Quarter
Mar 1
New
Mar 8
First Quarter
Mar 16
Full

Hourly Weather History & Observations

Time (MST) Temp. Windchill Dew Point Humidity Pressure Visibility Wind Dir Wind Speed Gust Speed Precip Events Conditions
12:00 AM -34.6 °F - -40.0 °F 75% 29.96 in 15.0 mi WSW 2.3 mph - N/A   Ice Crystals
1:00 AM -34.6 °F - -41.8 °F 68% 29.97 in 15.0 mi Calm Calm - N/A   Ice Crystals
2:00 AM -31.0 °F - -38.2 °F 68% 29.98 in 15.0 mi Calm Calm - N/A   Ice Crystals
3:00 AM -34.6 °F -47.4 °F -41.8 °F 68% 30.00 in 15.0 mi Variable 3.5 mph - N/A   Ice Crystals
4:00 AM -34.6 °F - -41.8 °F 68% 30.01 in 15.0 mi West 2.3 mph - N/A   Ice Crystals
5:00 AM -38.2 °F - -45.4 °F 67% 30.02 in 15.0 mi WNW 2.3 mph - N/A   Ice Crystals
6:00 AM -38.2 °F - -45.4 °F 67% 30.02 in 15.0 mi Calm Calm - N/A   Ice Crystals
7:00 AM -36.4 °F - -45.4 °F 61% 30.03 in 15.0 mi Calm Calm - N/A   Ice Crystals
8:00 AM -38.2 °F - -47.2 °F 61% 30.04 in 15.0 mi Calm Calm - N/A   Ice Crystals
9:00 AM -40.0 °F - -47.2 °F 67% 30.05 in 15.0 mi SW 2.3 mph - N/A   Ice Crystals
9:12 AM -40.0 °F - -47.2 °F 67% 30.06 in 5.0 mi SW 2.3 mph - N/A Fog Patches of Fog
9:34 AM -40.0 °F - -47.2 °F 67% 30.06 in 6.0 mi Calm Calm - N/A Fog Patches of Fog
10:00 AM -38.2 °F - -47.2 °F 61% 30.06 in 6.0 mi West 2.3 mph - N/A Fog Patches of Fog
10:28 AM -40.0 °F - -47.2 °F 67% 30.06 in 8.0 mi Calm Calm - N/A Fog Patches of Fog
10:40 AM -40.0 °F - -47.2 °F 67% 30.06 in 1.5 mi WSW 2.3 mph - N/A   Partly Cloudy
11:00 AM -40.0 °F - -47.2 °F 67% 30.07 in 2.0 mi West 2.3 mph - N/A   Partly Cloudy
11:37 AM -40.0 °F -53.5 °F -47.2 °F 67% 30.07 in 1.2 mi West 3.5 mph - N/A   Partly Cloudy
12:00 PM -40.0 °F -53.5 °F -47.2 °F 67% 30.08 in 1.0 mi West 3.5 mph - N/A   Partly Cloudy
1:00 PM -40.0 °F - -47.2 °F 67% 30.08 in 1.0 mi WSW 2.3 mph - N/A   Partly Cloudy
1:22 PM -38.2 °F - -47.2 °F 61% 30.08 in 2.0 mi Variable 2.3 mph - N/A   Scattered Clouds
1:46 PM -38.2 °F -51.5 °F -47.2 °F 61% 30.09 in 1.0 mi SW 3.5 mph - N/A   Clear
2:00 PM -38.2 °F -51.5 °F -47.2 °F 61% 30.09 in 1.0 mi West 3.5 mph - N/A   Clear
2:06 PM -38.2 °F - -47.2 °F 61% 30.09 in 0.8 mi West 2.3 mph - N/A   Clear
3:00 PM -36.4 °F - -43.6 °F 67% 30.08 in 1.5 mi WNW 2.3 mph - N/A   Clear
4:00 PM -36.4 °F - -43.6 °F 67% 30.09 in 1.5 mi WSW 2.3 mph - N/A   Scattered Clouds
4:50 PM -36.4 °F - -43.6 °F 67% 30.09 in 4.0 mi Calm Calm - N/A   Ice Crystals
5:00 PM -34.6 °F - -43.6 °F 61% 30.09 in 4.0 mi Calm Calm - N/A   Ice Crystals
6:00 PM -36.4 °F - -43.6 °F 67% 30.10 in 10.0 mi Calm Calm - N/A   Ice Crystals
7:00 PM -36.4 °F -52.4 °F -43.6 °F 67% 30.09 in 10.0 mi WNW 4.6 mph - N/A   Ice Crystals
8:00 PM -36.4 °F - -45.4 °F 61% 30.09 in 10.0 mi West 2.3 mph - N/A   Ice Crystals
9:00 PM -38.2 °F - -45.4 °F 67% 30.10 in 10.0 mi SSW 2.3 mph - N/A   Ice Crystals
10:00 PM -38.2 °F - -45.4 °F 67% 30.10 in 10.0 mi West 2.3 mph - N/A   Ice Crystals
11:00 PM -41.8 °F - -49.0 °F 67% 30.10 in 10.0 mi Calm Calm - N/A   Ice Crystals